Home > Weather > Kodiak > Past weeks

Flag for U.S.A. Weather for the Past 2 Weeks in Kodiak, Alaska, U.S.A.

Now
34 °F

Light rain. Fog.


Feels Like: 34 °F
Forecast: 34 / 39 °F
Wind: No wind

Location: Kodiak Weather Reporting Station

Current Time: Feb 13, 2016 at 6:50:44 AM

Latest Report: Feb 13, 2016 at 5:53 AM


Visibility: 4 mi

Pressure: 29.26 "Hg

Humidity: 100%

Dew point: 34 °F

Location of KodiakLocation

Historic Weather in Kodiak — Graph

°F

Kodiak Temperature Yesterday

Maximum temperature yesterday: 37 °F (at 12:53 PM)
Minimum temperature yesterday: 33 °F (at 8:53 AM)
Average temperature yesterday: 35 °F

High & Low Weather Summary for the Past Weeks

 TemperatureHumidityPressure
High41 °F (Jan 30, 3:53 PM)100% (Jan 30, 8:53 PM)29.90 "Hg (Jan 30, 8:53 PM)
Low24 °F (Feb 6, 7:53 AM)62% (Feb 5, 1:53 PM)28.55 "Hg (Feb 4, 1:53 PM)
Average36 °F94%29.42 "Hg
* Reported Jan 29 5:53 AM — Feb 13 5:53 AM, Kodiak, Weather by CustomWeather, © 2016

Note: Actual official high and low records may vary slightly from our data, if they occured in-between our weather recording intervals... More about our weather records

Advertising

Kodiak Weather History for the Previous 24 Hours

 ConditionsComfort  
Time TempWeatherWind HumidityBarometerVisibility
5:53 AM
Sat, Feb 13
34 °FLight rain. Fog.No wind100%29.26 "Hg4 mi
4:53 AM34 °FLight rain. Fog.10 mph100%29.26 "Hg6 mi
3:53 AM34 °FMostly cloudy.5 mph100%29.27 "Hg10 mi
2:53 AM34 °FMostly cloudy.5 mph92%29.26 "Hg10 mi
1:53 AM34 °FPassing clouds.8 mph92%29.26 "Hg10 mi
12:53 AM33 °FPassing clouds.3 mph100%29.25 "Hg10 mi
11:53 PM
Fri, Feb 12
34 °FPassing clouds.12 mph100%29.23 "Hg10 mi
10:53 PM35 °FPassing clouds.8 mph88%29.21 "Hg10 mi
9:53 PM35 °FPassing clouds.9 mph92%29.20 "Hg10 mi
8:53 PM35 °FOvercast.6 mph100%29.18 "Hg10 mi
7:53 PM34 °FOvercast.No windN/A29.17 "Hg10 mi
6:53 PM34 °FOvercast.5 mph100%29.16 "Hg10 mi
5:53 PM35 °FMore clouds than sun.6 mph100%29.15 "Hg10 mi
4:53 PM37 °FBroken clouds.7 mph96%29.15 "Hg10 mi
3:53 PM37 °FLight rain. Mostly cloudy.9 mph96%29.15 "Hg10 mi
2:53 PM37 °FLight rain. Mostly cloudy.7 mph96%29.15 "Hg10 mi
1:53 PM37 °FLight rain. More clouds than sun.13 mph96%29.15 "Hg10 mi
12:53 PM37 °FOvercast.13 mph93%29.17 "Hg10 mi
11:53 AM35 °FMore clouds than sun.16 mph100%29.17 "Hg10 mi
10:53 AM35 °FLight rain. Mostly cloudy.17 mph100%29.18 "Hg10 mi
9:53 AM34 °FLight rain. More clouds than sun.18 mph100%29.19 "Hg8 mi
8:53 AM33 °FLight rain. More clouds than sun.17 mph100%29.20 "Hg10 mi
7:53 AM34 °FLight rain. Overcast.16 mph100%29.21 "Hg8 mi
6:53 AM35 °FLight rain. Overcast.10 mph100%29.23 "Hg7 mi
Weather by CustomWeather, © 2016

See weather overviewHow to use our weather pages